Weather in Kuragino

Russia / Krasnoyarsk Krai     53°53′18″N   92°40′03″E
temp.,
°C
wind,
m/s
gust,
m/s
humid.,
%
clouds,
%
prec.,
mm/h
press.,
hPa
HPBL,
m
1 march, mon
mon101:00−19ene2290100 0.0 103220
04:00−19ene2295100 0.1 102921
07:00−18ene2294100 0.1 102720
10:00−14e2494100 0.1 1023205
13:00−11e3593100 0.5 1018337
16:00−8se2495100 1.3 1014356
19:00−8ese1297100 2.8 101344
22:00−8ese1397100 2.0 1012135
2 march, tue
tue201:00−7se2397100 3.4 1011113
04:00−7sse2397100 1.2 100998
07:00−5sse2697100 1.8 1009194
10:00−2wsw51188100 0.8 1009775
13:000wsw61180100 0.9 10101328
16:000w4884100 0.2 1010790
19:00−3w2495100 0.9 1012156
22:00−5wnw1297100 1.1 101369
3 march, wed
wed301:00−6wnw1297100 2.0 101231
04:00−8n1296100 0.3 101321
07:00−9n2296100 0.8 101441
10:00−8nw1294100 0.3 1015156
13:00−6nw2285100 0.4 1016392
16:00−6nw228698 0.0 1017338
19:00−10nnw118994 0.0 102021
22:00−10n118893 0.0 102221
4 march, thu
thu401:00−11e009696 0.2 102321
04:00−11sse119799 0.4 102521
07:00−14s229580 0.6 102821
10:00−11sse239114 0.1 1028154
13:00−7s24797 0.1 1027533
16:00−5se35830 0.0 1025514
19:00−8e128717 0.0 102621
22:00−9e2287100 0.0 102621
5 march, fri
fri501:00−11ene128797 0.0 102421
04:00−12ene2287100 0.0 102321
07:00−13e1287100 0.0 102321
10:00−9e228866 0.0 1021117
13:00−4ese368534 0.0 1016397
16:00−1e378896 0.0 1013405
19:00−2s499298 0.1 1016340
22:00−3sw51485100 0.0 1020581